Dewpoint
47 42 39 36 30 23 18 17 16 12 22 24 25 23 23 25 39 43 61 62 68 68 69 70 71 71 70 69 69 69 70 69 70 70 69 68 68 68 68 67 67 67 67 66 65 65 65 66 67
40 36 33 32 25 21 21 17 14 18 19 19 21 23 23 34 50 59 60 63 65 68 67 68 69 71 70 70 69 69 70 69 70 70 69 69 68 68 68 68 68 68 67 65 64 65 65 66 66
40 36 32 27 25 21 20 15 14 17 19 18 19 20 29 45 48 58 61 63 64 67 67 67 68 70 68 67 66 68 68 67 68 69 69 69 69 69 69 68 67 67 66 65 65 64 65 66 65
33 35 29 20 20 20 19 16 15 14 18 21 23 23 45 47 49 59 60 62 63 65 67 67 67 67 65 65 65 65 65 64 62 65 69 69 69 69 68 67 67 66 66 65 64 65 65 64 65
29 27 21 20 19 19 19 15 13 12 13 23 26 25 41 52 56 57 59 60 61 65 67 66 66 66 65 64 65 64 64 62 60 61 66 67 68 68 68 67 66 66 66 64 64 64 63 63 62
24 23 19 18 18 17 15 15 15 15 15 17 19 24 46 54 56 59 60 61 62 65 65 65 65 65 64 64 64 63 63 62 61 61 61 66 67 67 67 66 65 66 65 63 64 62 62 62 59
25 24 20 19 18 16 14 17 17 17 18 21 24 22 49 54 58 59 61 63 64 65 66 64 64 65 64 63 63 62 62 63 60 60 62 66 67 66 66 65 66 65 64 63 63 61 61 60 57
26 24 20 19 17 16 15 19 20 20 20 24 22 20 49 53 56 60 62 61 62 64 63 66 64 64 64 64 62 61 61 61 60 60 61 66 66 66 65 65 65 64 64 63 62 61 60 58 55
25 21 18 18 17 15 15 17 19 20 20 20 20 23 45 54 56 59 60 59 62 63 63 65 65 65 64 64 62 63 62 62 62 61 62 65 65 65 65 64 64 63 63 62 62 60 58 56 54
23 18 18 19 18 15 14 12 17 19 20 21 21 50 53 53 53 55 58 59 60 61 62 64 64 64 64 65 63 63 63 61 61 62 65 65 64 63 64 64 63 63 62 62 61 59 56 52 52
23 19 18 18 18 18 17 12 13 15 15 18 25 47 51 51 50 50 54 57 58 60 62 63 64 64 63 63 64 63 63 62 61 62 64 64 64 63 63 63 62 62 61 60 58 56 53 50 51
22 19 18 17 17 16 14 13 12 13 15 20 21 45 50 50 49 48 50 56 58 59 61 63 64 63 63 63 62 63 63 63 62 63 63 62 62 62 62 61 60 60 58 57 55 52 50 49 50
21 19 17 16 14 14 13 13 12 13 15 15 17 29 35 39 47 46 48 56 59 59 60 62 62 61 60 59 60 62 63 63 62 63 63 61 61 61 61 60 58 56 56 54 51 51 48 48 48
22 21 19 16 13 13 14 14 14 13 15 14 13 15 36 37 40 44 53 57 59 60 61 62 61 60 59 59 59 61 62 62 62 61 61 60 62 62 60 56 54 54 53 50 50 51 48 47 48
23 20 19 19 18 17 15 14 14 16 14 15 15 17 36 38 41 44 47 57 58 59 61 61 61 60 59 59 59 60 61 61 61 61 60 60 61 61 58 52 52 51 52 48 50 51 51 49 51
23 22 18 19 18 18 16 13 16 16 15 14 15 16 33 38 42 44 47 54 57 60 60 62 62 60 59 59 59 59 60 60 61 60 60 60 61 60 58 50 52 51 52 48 51 51 50 49 49
24 21 21 21 21 19 17 14 16 17 16 19 18 21 33 39 43 44 47 55 57 59 60 60 61 60 60 59 58 59 59 59 60 60 60 59 60 60 58 52 54 52 53 50 52 50 48 48 49
22 21 20 20 21 21 18 16 17 17 21 22 24 26 36 39 43 44 47 52 57 58 59 60 60 60 60 59 58 58 59 59 59 59 59 59 59 58 58 57 57 55 54 53 50 49 48 48 49
23 22 21 21 22 22 22 19 16 15 18 21 25 25 35 39 43 45 48 49 56 57 58 58 57 59 59 58 57 56 57 58 58 58 58 57 57 57 57 57 57 57 55 51 49 49 47 46 47
15 17 18 19 20 19 21 22 20 17 18 20 26 27 31 39 42 45 48 50 55 57 58 57 57 59 59 58 58 57 57 57 57 57 55 57 57 54 54 56 55 55 52 51 49 47 48 45 48
20 20 19 21 19 22 25 24 23 17 18 19 20 28 28 39 42 46 48 50 55 56 57 57 56 58 57 58 58 57 57 58 57 57 56 57 56 55 54 54 55 53 52 49 49 48 47 45 49
20 24 29 32 35 30 34 26 26 18 17 18 19 18 20 33 43 47 49 49 53 56 57 57 58 57 57 58 57 57 56 55 56 56 54 55 56 55 53 53 53 52 52 50 51 51 48 49 47
25 32 33 36 37 35 33 29 25 22 19 18 19 19 18 24 43 48 50 50 51 54 55 56 58 57 58 58 57 56 56 55 55 56 54 54 55 55 53 54 54 52 54 53 53 53 53 53 50
37 37 35 36 37 30 33 29 23 21 20 20 19 19 20 21 42 48 50 52 51 54 54 56 56 56 57 57 57 56 56 55 55 55 55 53 54 54 54 53 55 54 55 55 55 55 55 54 52
37 36 29 27 28 27 27 26 24 23 23 23 23 21 20 24 40 47 50 52 52 53 53 55 55 54 57 57 57 57 56 55 55 55 54 54 54 53 53 54 55 55 56 56 57 56 56 56 54
33 34 30 23 25 27 23 20 20 23 23 22 23 22 23 29 39 47 50 51 52 53 53 53 54 55 55 57 57 56 57 56 55 55 55 54 54 53 52 54 55 56 56 56 56 56 56 55 54
28 29 33 31 33 30 31 26 21 22 22 22 22 22 28 33 39 47 49 50 52 52 53 54 54 54 55 55 55 56 56 56 55 55 55 55 55 54 54 52 55 55 55 55 55 54 54 55 54
25 31 30 31 25 24 25 30 28 22 22 23 24 26 28 32 34 39 48 49 51 53 52 53 54 54 55 56 56 56 56 56 56 56 55 55 54 53 54 53 53 54 54 53 53 53 52 53 53
28 28 35 35 32 29 28 31 39 40 31 29 29 29 30 31 33 33 41 49 50 53 53 52 53 53 53 56 56 55 56 57 57 56 56 56 56 54 52 53 53 53 54 53 52 51 50 51 51
29 32 32 30 30 30 33 32 43 44 40 31 26 28 30 29 31 32 37 48 51 52 53 52 52 52 52 55 55 55 54 54 55 56 56 56 56 56 54 53 51 51 53 53 52 51 50 49 50
Wind_Speed
7 8 1 3 2 4 13 15 13 4 11 12 14 8 3 3 3 3 7 8 18 16 15 13 14 16 19 21 21 19 17 16 17 18 21 22 24 24 24 24 24 26 27 27 26 24 26 28 27
4 3 3 5 3 7 16 13 5 19 16 11 5 4 5 3 10 14 9 8 11 15 16 14 14 16 19 21 22 22 20 19 18 18 19 21 23 25 25 23 23 25 26 26 27 26 27 27 25
2 3 2 4 6 18 8 9 13 13 13 8 3 3 2 9 9 13 13 13 10 19 17 15 14 17 21 19 16 12 18 10 16 19 21 21 22 24 25 25 25 25 26 26 27 27 25 24 25
2 2 5 6 21 30 27 16 8 6 9 13 7 2 6 6 6 11 15 14 14 14 17 20 18 24 23 20 22 24 20 18 11 12 17 24 24 24 25 26 25 27 27 27 27 26 22 23 20
3 4 10 10 24 28 28 9 7 5 3 12 9 4 8 6 19 15 11 9 10 12 17 18 19 18 19 19 18 17 20 25 27 21 17 21 26 26 25 25 25 27 28 26 25 22 22 20 21
4 4 7 14 26 23 16 11 10 6 4 2 2 4 4 18 16 12 10 10 11 11 15 18 16 16 16 13 12 13 17 17 23 26 10 20 27 28 26 24 25 26 27 24 20 21 19 18 20
12 10 16 20 27 30 24 9 10 6 3 1 4 4 9 14 17 15 15 14 9 7 9 12 14 14 14 12 11 14 18 17 18 10 19 28 26 29 29 25 25 26 26 23 19 20 18 18 18
11 10 21 18 21 29 12 2 12 10 6 5 3 4 10 13 18 18 16 13 10 8 3 4 11 14 12 9 14 14 15 17 16 8 11 33 28 27 27 28 27 26 26 21 18 17 17 18 16
12 19 23 23 26 30 15 3 6 8 6 1 6 11 13 22 20 16 13 8 9 7 5 4 4 11 12 15 16 16 15 9 10 16 18 29 23 24 27 24 27 24 25 21 16 16 18 16 13
20 12 26 20 29 22 22 11 4 4 8 9 15 18 20 20 17 17 14 14 12 11 9 8 7 7 8 11 15 14 13 10 8 12 15 18 22 21 22 24 25 21 23 20 17 17 18 11 8
20 26 22 26 30 21 26 19 7 7 9 10 6 18 20 16 16 14 16 18 16 12 11 10 10 8 12 10 12 12 10 12 10 9 17 17 21 21 20 19 19 18 16 15 14 16 12 9 8
25 27 27 28 30 26 23 15 14 10 9 8 6 22 20 18 16 14 12 18 18 15 12 12 16 14 11 9 10 12 12 13 12 17 17 19 17 18 18 16 18 17 12 12 12 15 10 10 8
26 27 26 26 25 26 24 24 18 22 18 14 10 10 15 14 18 14 12 19 20 17 14 18 18 17 10 6 3 6 12 15 15 17 23 19 19 16 19 18 17 15 15 14 16 14 13 12 7
19 23 26 23 22 25 23 22 15 22 15 18 19 17 16 14 12 9 19 22 20 20 17 16 17 16 15 9 5 7 11 13 18 19 22 20 17 18 18 17 18 16 15 16 17 15 15 14 10
22 25 24 18 20 20 19 21 26 25 18 23 22 21 21 19 16 16 20 22 24 19 19 18 17 17 16 14 10 9 10 13 16 18 22 26 18 17 20 19 17 19 15 16 16 16 14 15 13
14 14 18 20 22 22 18 25 25 25 23 26 26 24 20 17 19 17 20 21 20 21 20 17 17 17 15 14 13 9 11 13 14 18 19 22 16 17 21 20 18 19 16 16 13 16 18 17 16
6 16 25 20 19 22 21 30 30 28 24 9 14 14 16 16 16 17 20 22 22 22 21 19 16 18 17 15 13 10 13 15 10 20 18 21 16 13 18 19 15 21 16 15 15 16 18 19 17
12 17 20 25 29 24 25 32 27 24 14 17 16 18 22 24 23 23 23 24 23 21 20 19 16 17 16 16 14 10 11 12 14 14 18 22 20 19 18 15 15 20 16 17 16 19 15 16 19
19 23 26 24 25 23 26 19 27 20 18 19 23 19 24 26 25 25 26 25 25 23 20 20 17 15 17 17 16 14 14 14 15 16 17 16 16 13 20 14 15 13 16 19 20 15 20 16 15
16 23 29 27 32 24 28 26 20 20 20 23 25 25 24 25 22 26 27 24 26 26 21 20 17 18 15 16 15 11 16 14 13 15 17 14 12 13 16 14 14 12 16 19 18 19 12 12 14
20 25 25 28 37 28 28 20 29 14 14 18 15 28 25 30 27 26 28 28 27 27 25 21 20 19 17 15 15 14 15 12 13 15 15 13 13 11 14 16 16 16 16 19 18 20 16 17 10
24 19 20 25 27 18 15 28 30 19 25 27 28 20 22 24 27 30 27 27 28 26 24 22 22 20 19 18 16 21 17 19 14 20 18 17 15 15 15 15 20 19 19 18 19 17 19 18 19
18 10 15 15 21 18 29 20 25 23 17 26 31 29 25 21 30 32 31 31 26 28 27 24 23 21 20 20 19 20 17 15 15 16 17 16 12 13 17 16 20 19 16 17 17 17 19 16 17
5 12 10 12 13 12 30 20 17 22 22 22 17 21 27 24 31 33 30 27 26 25 26 25 25 21 21 21 20 22 20 19 18 18 19 20 13 12 12 13 16 19 17 18 19 17 16 19 17
3 12 6 9 10 14 14 20 23 13 23 25 24 22 26 23 28 30 30 28 27 28 28 25 26 25 22 23 22 23 23 23 22 22 23 21 19 16 16 14 16 17 16 17 16 18 18 16 18
7 3 6 6 6 4 17 13 17 22 34 9 10 11 10 20 26 32 31 30 29 29 30 27 27 24 24 22 23 23 22 23 21 23 21 21 21 23 21 16 15 16 18 19 19 16 16 15 16
3 11 8 8 4 4 7 14 15 20 30 19 11 8 10 20 25 30 30 29 29 30 31 30 29 24 26 25 23 23 20 21 24 24 24 23 22 19 20 19 15 17 17 17 17 18 19 16 17
15 2 4 5 5 4 6 9 8 4 14 17 13 10 13 15 19 20 27 27 28 30 28 27 30 30 26 25 25 23 25 24 22 22 25 24 24 23 23 24 24 21 20 20 20 19 16 18 18
9 15 6 5 5 4 2 6 21 27 17 25 21 25 23 20 10 10 18 24 25 25 26 27 25 27 25 27 25 26 23 25 22 24 25 25 23 26 26 25 25 27 25 25 24 23 22 24 24
19 19 18 5 3 7 4 7 22 21 22 21 19 17 21 20 22 25 23 18 22 25 25 27 26 25 27 26 26 26 25 26 24 24 26 24 26 24 26 26 26 29 28 26 29 28 27 27 29
Wind_Direction
191 226 200 313 279 228 260 260 254 121 79 70 70 63 338 5 60 169 138 97 135 137 139 135 140 148 146 145 144 142 133 133 134 131 129 127 125 123 121 121 122 125 125 125 123 123 120 116 113
207 259 240 271 222 259 278 268 141 99 102 85 99 134 235 121 104 135 117 118 120 147 144 141 152 147 152 155 154 151 147 147 140 139 135 134 132 130 129 127 127 127 127 129 127 125 123 120 121
265 214 255 206 230 243 250 344 100 117 118 114 64 342 233 119 98 136 152 143 128 137 143 141 152 146 128 118 118 142 141 140 151 151 148 144 141 138 134 131 131 132 129 129 126 130 131 125 125
190 293 271 247 254 259 248 272 133 112 128 130 161 243 73 79 121 134 145 142 126 132 134 140 141 143 142 137 138 128 128 102 12 302 162 154 148 142 137 134 137 135 131 129 133 134 134 133 126
233 261 234 244 257 263 276 241 116 92 68 157 147 202 136 79 106 104 109 108 123 143 139 142 139 151 146 141 141 155 165 168 160 209 248 172 148 142 138 138 140 136 129 131 136 136 140 128 115
234 196 245 253 269 274 291 170 126 110 110 70 348 288 103 125 116 120 112 99 84 96 140 147 155 149 154 159 165 183 182 186 175 169 247 195 152 144 137 139 140 130 128 133 140 139 136 123 119
225 263 258 267 279 295 298 166 129 121 111 339 101 354 137 127 144 143 122 102 97 87 91 154 161 166 172 183 191 170 164 172 146 150 178 209 155 142 136 137 132 129 129 139 146 139 138 124 122
224 240 268 271 279 285 300 125 146 164 176 104 98 193 168 178 143 129 114 114 131 138 129 151 179 177 179 174 161 156 165 179 169 191 347 171 149 139 136 137 133 133 132 141 140 137 130 130 126
253 238 248 254 264 271 303 199 185 123 121 115 243 223 159 150 140 131 133 140 138 140 167 174 180 176 173 170 161 163 146 153 142 192 278 153 139 131 129 134 132 134 131 135 139 132 132 131 118
231 239 242 247 258 274 317 336 150 160 199 226 241 96 129 143 157 164 179 176 170 175 185 168 182 166 158 155 166 154 163 166 171 106 178 141 133 130 128 129 128 131 131 134 136 135 133 126 117
243 243 255 258 267 284 285 299 291 238 221 218 164 156 155 160 173 187 201 180 172 171 167 166 176 137 134 134 150 157 157 147 133 145 118 136 128 129 130 131 124 125 130 134 136 134 132 141 128
242 245 248 253 264 270 282 283 287 286 275 309 262 166 170 172 177 193 185 168 159 144 154 141 124 119 135 146 154 164 153 151 155 133 134 122 125 134 133 135 132 136 145 145 146 133 148 150 138
242 248 255 256 256 261 275 276 265 270 279 293 286 198 178 177 184 194 177 157 147 143 132 133 126 129 127 119 159 168 153 158 158 155 145 147 139 149 138 142 146 150 154 157 144 152 163 153 164
249 255 261 264 266 260 265 267 277 265 253 260 266 264 182 186 193 176 141 153 151 148 138 142 133 131 127 126 142 138 140 154 157 155 147 147 143 154 147 152 154 154 161 164 153 156 171 167 173
271 272 276 276 272 278 263 263 259 264 250 244 238 250 193 192 184 177 161 164 154 154 143 143 141 133 137 135 121 128 153 153 153 156 161 152 149 162 159 157 161 158 162 161 167 159 173 163 164
292 294 278 266 270 274 265 263 259 255 260 252 235 236 199 186 183 168 168 153 150 143 144 139 140 141 142 136 132 124 143 145 154 148 156 155 151 170 158 167 161 164 152 171 163 163 157 156 158
279 267 270 277 258 248 243 255 254 246 249 233 189 197 189 180 162 156 149 151 152 148 148 148 152 151 146 138 133 127 127 133 149 149 155 163 163 176 164 168 167 157 163 170 171 160 157 161 167
247 259 264 261 267 264 254 251 261 234 220 198 201 214 185 179 172 163 157 148 149 152 148 142 151 149 145 148 141 135 134 138 147 153 163 167 175 177 171 170 154 165 167 167 168 162 163 166 166
265 273 270 279 283 291 286 281 229 223 239 237 207 213 195 186 181 164 158 150 143 150 146 146 155 155 150 154 157 155 155 154 154 160 164 176 173 181 175 160 147 161 172 169 170 159 167 163 157
283 288 279 289 283 289 290 269 265 222 228 234 215 211 204 190 176 165 156 147 151 154 152 151 163 163 162 157 161 161 167 168 162 159 174 181 187 184 164 152 153 171 164 164 163 153 147 165 156
257 267 276 290 286 292 304 286 288 247 263 270 244 208 209 187 176 164 159 156 151 155 157 159 168 168 168 159 152 149 161 147 161 171 179 192 191 194 177 163 173 173 178 168 170 163 162 167 173
249 251 294 305 333 274 306 292 275 255 248 248 251 248 210 188 171 166 160 162 159 159 158 161 161 173 173 164 162 162 166 173 177 181 181 186 194 196 195 180 178 177 180 179 174 173 176 171 181
253 289 286 315 300 302 277 268 267 255 257 235 238 234 216 185 165 168 171 170 162 158 157 162 162 175 174 173 173 170 168 176 175 174 183 190 199 196 193 193 185 186 182 182 179 178 177 172 179
340 285 285 310 280 256 255 242 254 250 254 270 258 220 207 201 170 171 170 160 164 159 160 162 170 170 178 181 176 178 174 172 172 178 186 195 201 203 196 192 188 185 183 180 180 181 183 182 174
293 274 188 214 210 235 209 236 241 242 243 248 284 206 199 196 160 163 159 163 166 164 165 160 170 180 181 184 186 182 184 181 181 181 190 194 202 207 211 198 187 189 183 182 182 186 194 181 181
194 200 206 212 204 259 228 237 231 224 245 217 140 110 100 183 155 162 163 168 171 167 167 169 170 176 186 184 184 187 184 188 189 189 192 197 203 209 205 202 190 188 188 186 189 191 201 196 195
219 227 221 290 339 283 260 267 274 266 237 199 140 119 102 163 147 160 170 171 169 171 172 172 175 178 184 189 192 189 190 188 192 195 195 198 200 205 211 203 198 197 196 197 196 194 201 194 201
210 209 190 166 263 226 254 279 303 237 180 149 142 116 147 144 169 162 171 175 176 176 173 170 174 180 185 186 193 193 198 202 201 198 200 202 200 200 200 205 203 202 201 201 207 209 208 207 206
216 237 206 222 222 260 247 251 6 356 2 84 70 73 61 48 83 112 171 182 174 167 171 177 175 178 186 187 194 196 195 199 198 201 203 205 205 202 204 201 204 207 204 201 205 211 212 212 218
188 232 210 246 196 210 304 279 352 351 326 13 75 67 72 49 44 42 34 167 160 167 172 181 185 184 188 185 192 200 204 209 208 202 205 203 207 207 208 210 208 211 211 206 210 211 214 217 219